timestamp,wind_dir_avg,wind_spd_avg,wind_spd_max_dir,wind_spd_gust,battery_voltage,lat,long
2023-08-26 00:04:00+00:00,231.0,3.39,232.0,3.97,12.49,47.59359,-54.27349
2023-08-26 00:14:01+00:00,245.0,3.93,244.0,4.3,12.41,47.59359,-54.27349
2023-08-26 00:24:01+00:00,258.0,3.74,259.0,4.17,12.41,47.59359,-54.27349
2023-08-26 00:34:01+00:00,253.0,3.47,257.0,3.72,12.41,47.59359,-54.27349
2023-08-26 00:44:01+00:00,256.0,2.79,256.0,2.99,12.41,47.59359,-54.27349
2023-08-26 00:54:01+00:00,248.0,2.49,248.0,2.71,12.41,47.59359,-54.27349
2023-08-26 01:04:01+00:00,255.0,2.36,261.0,2.6,12.41,47.59359,-54.27349
2023-08-26 01:14:00+00:00,255.0,3.02,256.0,3.24,12.41,47.59359,-54.27349
2023-08-26 01:24:00+00:00,245.0,2.86,246.0,3.09,12.41,47.59359,-54.27349
2023-08-26 01:34:00+00:00,220.0,1.75,214.0,2.05,12.41,47.59359,-54.27349
2023-08-26 01:44:00+00:00,219.0,1.62,216.0,1.8,12.41,47.59359,-54.27349
2023-08-26 01:54:00+00:00,224.0,1.45,225.0,1.6,12.41,47.59359,-54.27349
2023-08-26 02:04:00+00:00,235.0,1.36,235.0,1.55,12.41,47.59359,-54.27349
2023-08-26 02:14:01+00:00,222.0,1.44,221.0,1.64,12.41,47.59359,-54.27349
2023-08-26 02:24:01+00:00,255.0,1.35,265.0,1.52,12.41,47.59359,-54.27349
2023-08-26 02:34:01+00:00,251.0,1.23,246.0,1.42,12.41,47.59359,-54.27349
2023-08-26 02:44:01+00:00,228.0,1.07,239.0,1.28,12.41,47.59359,-54.27349
2023-08-26 02:54:01+00:00,218.0,1.06,208.0,1.25,12.41,47.59359,-54.27349
2023-08-26 03:04:01+00:00,38.0,0.57,43.0,0.84,12.41,47.59359,-54.27349
2023-08-26 03:14:01+00:00,68.0,1.58,53.0,2.29,12.41,47.59359,-54.27349
2023-08-26 03:24:01+00:00,143.0,2.15,143.0,2.47,12.41,47.59359,-54.27349
2023-08-26 03:34:01+00:00,130.0,1.81,130.0,2.12,12.41,47.59359,-54.27349
2023-08-26 03:44:01+00:00,134.0,1.76,131.0,1.95,12.41,47.59359,-54.27349
2023-08-26 03:54:01+00:00,148.0,1.34,146.0,1.51,12.41,47.59359,-54.27349
2023-08-26 04:04:01+00:00,148.0,1.51,147.0,1.69,12.41,47.59359,-54.27349
2023-08-26 04:14:00+00:00,133.0,0.46,143.0,0.67,12.41,47.59359,-54.27349
2023-08-26 04:24:00+00:00,153.0,1.35,152.0,1.48,12.41,47.59359,-54.27349
2023-08-26 04:34:00+00:00,43.0,0.27,30.0,0.4,12.41,47.59359,-54.27349
2023-08-26 04:44:00+00:00,48.0,0.73,30.0,0.96,12.41,47.59359,-54.27349
2023-08-26 04:54:00+00:00,27.0,0.64,21.0,0.88,12.41,47.59359,-54.27349
2023-08-26 05:04:00+00:00,58.0,0.38,29.0,0.7,12.41,47.59359,-54.27349
2023-08-26 05:14:00+00:00,178.0,1.01,176.0,1.19,12.33,47.59359,-54.27349
2023-08-26 05:24:00+00:00,292.0,0.71,297.0,0.99,12.33,47.59359,-54.27349
2023-08-26 05:34:00+00:00,15.0,1.43,19.0,1.7,12.33,47.59359,-54.27349
2023-08-26 05:44:00+00:00,19.0,1.79,14.0,2.11,12.33,47.59359,-54.27349
2023-08-26 05:54:00+00:00,7.0,1.32,8.0,1.5,12.33,47.59359,-54.27349
2023-08-26 06:04:00+00:00,16.0,1.19,15.0,1.32,12.33,47.59359,-54.27349
2023-08-26 06:14:00+00:00,22.0,1.1,27.0,1.23,12.33,47.59359,-54.27349
2023-08-26 06:24:00+00:00,41.0,0.6,27.0,0.97,12.33,47.59359,-54.27349
2023-08-26 06:34:00+00:00,146.0,0.27,142.0,0.49,12.33,47.59359,-54.27349
2023-08-26 06:44:00+00:00,20.0,0.31,25.0,0.47,12.33,47.59359,-54.27349
2023-08-26 06:54:00+00:00,160.0,0.21,175.0,0.45,12.33,47.59359,-54.27349
2023-08-26 07:04:00+00:00,208.0,2.42,210.0,2.73,12.33,47.59359,-54.27349
2023-08-26 07:14:01+00:00,183.0,3.44,184.0,3.73,12.33,47.59359,-54.27349
2023-08-26 07:24:01+00:00,188.0,2.98,189.0,3.53,12.33,47.59359,-54.27349
2023-08-26 07:34:01+00:00,185.0,2.75,183.0,3.08,12.33,47.59359,-54.27349
2023-08-26 07:44:01+00:00,218.0,3.99,216.0,5.13,12.33,47.59359,-54.27349
2023-08-26 07:54:01+00:00,232.0,3.3,232.0,3.93,12.33,47.59359,-54.27349
2023-08-26 08:04:01+00:00,263.0,2.19,242.0,3.11,12.33,47.59359,-54.27349
2023-08-26 08:14:00+00:00,288.0,1.5,296.0,1.86,12.25,47.59359,-54.27349
2023-08-26 08:24:00+00:00,309.0,1.27,325.0,2.19,12.25,47.59359,-54.27349
2023-08-26 08:34:00+00:00,303.0,0.66,303.0,1.05,12.25,47.59359,-54.27349
2023-08-26 08:44:00+00:00,245.0,1.44,238.0,1.82,12.25,47.59359,-54.27349
2023-08-26 08:54:00+00:00,241.0,1.63,261.0,2.07,12.25,47.59359,-54.27349
2023-08-26 09:04:00+00:00,182.0,4.34,186.0,4.75,12.25,47.59359,-54.27349
2023-08-26 09:14:00+00:00,177.0,4.59,180.0,4.84,12.25,47.59359,-54.27349
2023-08-26 09:24:00+00:00,203.0,4.07,210.0,5.02,12.25,47.59359,-54.27349
2023-08-26 09:34:00+00:00,202.0,3.7,197.0,4.85,12.25,47.59359,-54.27349
2023-08-26 09:44:00+00:00,219.0,2.22,198.0,3.61,12.25,47.59359,-54.27349
2023-08-26 09:54:00+00:00,197.0,4.43,195.0,5.05,12.25,47.59359,-54.27349
2023-08-26 10:04:00+00:00,196.0,4.21,195.0,5.03,12.25,47.59359,-54.27349
2023-08-26 10:14:00+00:00,203.0,4.24,203.0,4.79,13.29,47.59359,-54.27349
2023-08-26 10:24:00+00:00,202.0,4.97,204.0,5.46,13.29,47.59359,-54.27349
2023-08-26 10:34:00+00:00,195.0,5.13,197.0,5.66,13.29,47.59359,-54.27349
2023-08-26 10:44:00+00:00,200.0,4.84,200.0,5.62,13.29,47.59359,-54.27349
2023-08-26 10:54:00+00:00,191.0,4.67,197.0,5.35,13.29,47.59359,-54.27349
2023-08-26 11:04:00+00:00,193.0,4.87,190.0,5.49,13.29,47.59359,-54.27349
2023-08-26 11:14:01+00:00,198.0,4.15,199.0,4.75,13.68,47.59359,-54.27349
2023-08-26 11:24:01+00:00,204.0,4.26,200.0,4.7,13.68,47.59359,-54.27349
2023-08-26 11:34:01+00:00,202.0,4.41,206.0,4.78,13.68,47.59359,-54.27349
2023-08-26 11:44:01+00:00,202.0,4.43,202.0,4.87,13.68,47.59359,-54.27349
2023-08-26 11:54:01+00:00,198.0,4.49,199.0,4.99,13.68,47.59359,-54.27349
2023-08-26 12:04:01+00:00,202.0,4.24,208.0,5.06,13.68,47.59359,-54.27349
2023-08-26 12:14:00+00:00,185.0,4.82,186.0,5.24,14.32,47.59359,-54.27349
2023-08-26 12:24:00+00:00,203.0,4.17,204.0,4.65,14.32,47.59359,-54.27349
2023-08-26 12:34:00+00:00,206.0,4.27,206.0,4.68,14.32,47.59359,-54.27349
2023-08-26 12:44:00+00:00,208.0,3.88,210.0,4.49,14.32,47.59359,-54.27349
2023-08-26 12:54:00+00:00,215.0,4.12,219.0,4.77,14.32,47.59359,-54.27349
2023-08-26 13:04:00+00:00,216.0,3.87,210.0,4.81,14.32,47.59359,-54.27349
2023-08-26 13:14:01+00:00,215.0,4.38,211.0,5.02,13.6,47.59359,-54.27349
2023-08-26 13:24:01+00:00,218.0,5.19,218.0,6.08,13.6,47.59359,-54.27349
2023-08-26 13:34:01+00:00,213.0,5.19,214.0,6.1,13.6,47.59359,-54.27349
2023-08-26 13:44:01+00:00,215.0,5.54,223.0,7.32,13.6,47.59359,-54.27349
2023-08-26 13:54:01+00:00,211.0,5.82,213.0,6.64,13.6,47.59359,-54.27349
2023-08-26 14:04:01+00:00,209.0,6.44,214.0,6.88,13.6,47.59359,-54.27349
2023-08-26 14:14:00+00:00,205.0,6.1,206.0,6.64,13.76,47.59359,-54.27349
2023-08-26 14:24:00+00:00,211.0,5.98,219.0,6.8,13.76,47.59359,-54.27349
2023-08-26 14:34:00+00:00,203.0,6.49,201.0,6.94,13.76,47.59359,-54.27349
2023-08-26 14:44:00+00:00,204.0,5.58,200.0,6.31,13.76,47.59359,-54.27349
2023-08-26 14:54:00+00:00,201.0,5.36,199.0,6.04,13.76,47.59359,-54.27349
2023-08-26 15:04:00+00:00,220.0,5.26,227.0,6.24,13.76,47.59359,-54.27349
2023-08-26 15:14:00+00:00,238.0,9.23,242.0,10.67,13.53,47.59359,-54.27349
2023-08-26 15:24:00+00:00,234.0,9.11,237.0,11.13,13.53,47.59359,-54.27349
2023-08-26 15:34:00+00:00,241.0,9.81,241.0,11.59,13.53,47.59359,-54.27349
2023-08-26 15:44:00+00:00,241.0,11.6,242.0,12.1,13.53,47.59359,-54.27349
2023-08-26 15:54:00+00:00,239.0,9.87,241.0,11.63,13.53,47.59359,-54.27349
2023-08-26 16:04:00+00:00,243.0,10.37,244.0,12.19,13.53,47.59359,-54.27349
2023-08-26 16:14:00+00:00,239.0,10.48,238.0,11.7,13.76,47.59359,-54.27349
2023-08-26 16:24:00+00:00,241.0,11.2,243.0,12.1,13.76,47.59359,-54.27349
2023-08-26 16:34:00+00:00,242.0,11.12,240.0,11.83,13.76,47.59359,-54.27349
2023-08-26 16:44:00+00:00,243.0,10.06,248.0,13.38,13.76,47.59359,-54.27349
2023-08-26 16:54:00+00:00,244.0,10.73,247.0,11.52,13.76,47.59359,-54.27349
2023-08-26 17:04:00+00:00,241.0,10.6,239.0,11.8,13.76,47.59359,-54.27349
2023-08-26 17:14:01+00:00,236.0,9.55,239.0,11.15,14.32,47.59359,-54.27349
2023-08-26 17:24:01+00:00,231.0,9.06,237.0,11.14,14.32,47.59359,-54.27349
2023-08-26 17:34:01+00:00,232.0,9.68,234.0,11.51,14.32,47.59359,-54.27349
2023-08-26 17:44:01+00:00,233.0,10.91,232.0,12.23,14.32,47.59359,-54.27349
2023-08-26 17:54:01+00:00,232.0,10.47,234.0,12.34,14.32,47.59359,-54.27349
2023-08-26 18:04:01+00:00,232.0,12.29,232.0,13.23,14.32,47.59359,-54.27349
2023-08-26 18:14:00+00:00,235.0,11.85,237.0,12.92,14.0,47.59359,-54.27349
2023-08-26 18:24:00+00:00,236.0,10.86,239.0,12.87,14.0,47.59359,-54.27349
2023-08-26 18:34:00+00:00,235.0,9.99,237.0,12.17,14.0,47.59359,-54.27349
2023-08-26 18:44:00+00:00,238.0,7.58,246.0,10.82,14.0,47.59359,-54.27349
2023-08-26 18:54:00+00:00,223.0,6.86,234.0,9.42,14.0,47.59359,-54.27349
2023-08-26 19:04:00+00:00,231.0,9.26,236.0,11.25,14.0,47.59359,-54.27349
2023-08-26 19:14:00+00:00,231.0,9.51,238.0,11.84,13.76,47.59359,-54.27349
2023-08-26 19:24:00+00:00,232.0,10.06,237.0,12.53,13.76,47.59359,-54.27349
2023-08-26 19:34:00+00:00,233.0,11.33,233.0,12.16,13.76,47.59359,-54.27349
2023-08-26 19:44:00+00:00,231.0,10.17,234.0,12.2,13.76,47.59359,-54.27349
2023-08-26 19:54:00+00:00,227.0,8.86,236.0,11.22,13.76,47.59359,-54.27349
2023-08-26 20:04:00+00:00,233.0,8.96,241.0,11.34,13.76,47.59359,-54.27349
2023-08-26 20:14:00+00:00,236.0,10.5,241.0,12.45,13.6,47.59359,-54.27349
2023-08-26 20:24:00+00:00,245.0,11.95,245.0,12.73,13.6,47.59359,-54.27349
2023-08-26 20:34:00+00:00,234.0,9.0,234.0,12.31,13.6,47.59359,-54.27349
2023-08-26 20:44:00+00:00,242.0,8.71,243.0,11.81,13.6,47.59359,-54.27349
2023-08-26 20:54:00+00:00,234.0,10.65,235.0,12.04,13.6,47.59359,-54.27349
2023-08-26 21:04:00+00:00,234.0,11.58,231.0,13.29,13.6,47.59359,-54.27349
2023-08-26 21:14:00+00:00,232.0,11.11,235.0,12.95,13.29,47.59359,-54.27349
2023-08-26 21:24:00+00:00,230.0,8.89,238.0,12.02,13.29,47.59359,-54.27349
2023-08-26 21:34:00+00:00,231.0,10.69,233.0,12.45,13.29,47.59359,-54.27349
2023-08-26 21:44:00+00:00,228.0,10.44,233.0,12.64,13.29,47.59359,-54.27349
2023-08-26 21:54:00+00:00,223.0,8.46,234.0,12.18,13.29,47.59359,-54.27349
2023-08-26 22:04:00+00:00,225.0,8.13,228.0,10.08,13.29,47.59359,-54.27349
2023-08-26 22:14:00+00:00,226.0,8.21,231.0,10.54,12.97,47.59359,-54.27349
2023-08-26 22:24:00+00:00,226.0,8.12,238.0,9.6,12.97,47.59359,-54.27349
2023-08-26 22:34:00+00:00,218.0,7.01,224.0,8.31,12.97,47.59359,-54.27349
2023-08-26 22:44:00+00:00,218.0,7.59,226.0,9.07,12.97,47.59359,-54.27349
2023-08-26 22:54:00+00:00,216.0,6.33,221.0,7.52,12.97,47.59359,-54.27349
2023-08-26 23:04:00+00:00,211.0,6.28,211.0,8.11,12.97,47.59359,-54.27349
2023-08-26 23:14:00+00:00,208.0,7.27,207.0,8.75,12.49,47.59359,-54.27349
2023-08-26 23:24:00+00:00,214.0,7.8,225.0,9.71,12.49,47.59359,-54.27349
2023-08-26 23:34:00+00:00,215.0,7.82,228.0,10.37,12.49,47.59359,-54.27349
2023-08-26 23:44:00+00:00,210.0,7.78,214.0,8.53,12.49,47.59359,-54.27349
2023-08-26 23:54:00+00:00,211.0,6.5,216.0,7.63,12.49,47.59359,-54.27349
